TimeEDT,TemperatureF,Dew PointF,Humidity,Sea Level PressureIn,VisibilityMPH,Wind Direction,Wind SpeedMPH,Gust SpeedMPH,PrecipitationIn,Events,Conditions,WindDirDegrees,DateUTC
12:53 AM,51.1,48.0,89,30.18,10.0,Calm,Calm,-,N/A,,Clear,0,2012-09-16 04:53:00
1:53 AM,50.0,48.0,93,30.17,10.0,Calm,Calm,-,N/A,,Clear,0,2012-09-16 05:53:00
2:53 AM,48.9,46.9,93,30.17,10.0,Calm,Calm,-,N/A,,Clear,0,2012-09-16 06:53:00
3:53 AM,48.0,46.0,93,30.16,10.0,Calm,Calm,-,N/A,,Clear,0,2012-09-16 07:53:00
4:53 AM,46.9,45.0,93,30.16,10.0,Calm,Calm,-,N/A,,Clear,0,2012-09-16 08:53:00
5:53 AM,48.0,45.0,89,30.16,10.0,Calm,Calm,-,N/A,,Clear,0,2012-09-16 09:53:00
6:53 AM,46.0,44.1,93,30.17,10.0,Calm,Calm,-,N/A,,Clear,0,2012-09-16 10:53:00
7:53 AM,48.0,46.0,93,30.18,10.0,Calm,Calm,-,N/A,,Clear,0,2012-09-16 11:53:00
8:53 AM,55.9,51.1,84,30.17,10.0,Calm,Calm,-,N/A,,Clear,0,2012-09-16 12:53:00
9:53 AM,63.0,50.0,63,30.17,10.0,South,8.1,-,N/A,,Clear,190,2012-09-16 13:53:00
10:53 AM,68.0,46.9,47,30.16,10.0,SSW,9.2,-,N/A,,Clear,210,2012-09-16 14:53:00
11:53 AM,71.1,48.0,44,30.14,10.0,SW,10.4,-,N/A,,Clear,220,2012-09-16 15:53:00
12:53 PM,73.9,48.0,40,30.13,10.0,South,8.1,-,N/A,,Clear,190,2012-09-16 16:53:00
1:53 PM,75.9,46.9,36,30.11,10.0,SW,10.4,-,N/A,,Clear,230,2012-09-16 17:53:00
2:53 PM,75.9,46.0,35,30.09,10.0,South,8.1,-,N/A,,Clear,180,2012-09-16 18:53:00
3:53 PM,75.9,46.0,35,30.06,10.0,South,8.1,-,N/A,,Partly Cloudy,190,2012-09-16 19:53:00
4:53 PM,75.9,43.0,31,30.05,10.0,Calm,Calm,-,N/A,,Clear,0,2012-09-16 20:53:00
5:53 PM,75.9,45.0,33,30.04,10.0,South,6.9,-,N/A,,Partly Cloudy,180,2012-09-16 21:53:00
6:53 PM,73.0,45.0,37,30.04,10.0,Calm,Calm,-,N/A,,Clear,0,2012-09-16 22:53:00
7:53 PM,66.0,50.0,56,30.04,10.0,Calm,Calm,-,N/A,,Clear,0,2012-09-16 23:53:00
8:53 PM,61.0,48.9,64,30.04,10.0,Calm,Calm,-,N/A,,Clear,0,2012-09-17 00:53:00
9:53 PM,57.0,48.9,74,30.04,10.0,Calm,Calm,-,N/A,,Clear,0,2012-09-17 01:53:00
10:53 PM,55.0,48.9,80,30.04,10.0,Calm,Calm,-,N/A,,Clear,0,2012-09-17 02:53:00
11:53 PM,55.0,48.9,80,30.05,10.0,Calm,Calm,-,N/A,,Clear,0,2012-09-17 03:53:00